Location: Unspecified
(0.0000°N, 0.0000°E)
Time: 08:19:24
(UTC+00:00)

Vanguard 1 Rocket - Pass Details

Date: 05 December 2022
Orbit: 651 x 4224 km, 34.3° (Epoch: 04 February)

Event Time Altitude Azimuth Distance (km) Brightness Sun altitude
Rises 21:28:43 0° 226° (SW) 8,238 12.9 -48.8°
Reaches altitude 10° 21:35:36 10° 219° (SW) 6,858 12.3 -50.2°
Enters shadow 21:53:12 42° 164° (SSE) 3,371 10.1 -53.6°
